Regional Weather Roundup
Issued by NWS

Home | Current Version | Previous Version | Graphics & Text | Print | Product List | Glossary On
Versions: 1 2 3 4 5 6 7 8 9 10 11 12 13 14 15 16 17 18 19 20 21 22 23 24 25 26 27 28 29 30 31 32 33 34 35 36 37 38 39 40 41 42 43 44 45 46 47 48 49 50
000
ASUS43 KOAX 242303
RWRNE

WEATHER ROUNDUP FOR NEBRASKA
NATIONAL WEATHER SERVICE OMAHA NE
600 PM CDT THU MAY 24 2018

NOTES: SATELLITE DATA IS BEING USED TO AUGMENT CLOUD COVER ABOVE
       12000 FEET.
       "FAIR" INDICATES FEW OR NO CLOUDS BELOW 12,000 FEET WITH NO
       SIGNIFICANT WEATHER AND/OR OBSTRUCTIONS TO VISIBILITY.


NEZ001>004-019>022-054>056-250000-
NEBRASKA PANHANDLE

CITY           SKY/WX    TMP DP  RH WIND       PRES   REMARKS
SCOTTSBLUFF    MOSUNNY   83  50  31 W8        29.98S
ALLIANCE       MOSUNNY   82  47  29 W17G23    29.97F
CHADRON        SUNNY     82  50  32 W8        29.94S
GORDON         FAIR      82  50  32 NW8       29.96S
KIMBALL        CLOUDY    73  51  46 N5        30.07S
SIDNEY         PTSUNNY   80  41  24 W9        30.03S
$$

NEZ057>060-069>072-079>082-250000-
SOUTHWEST NEBRASKA

CITY           SKY/WX    TMP DP  RH WIND       PRES   REMARKS
NORTH PLATTE   SUNNY     85  63  47 E5        29.93F
IMPERIAL       SUNNY     87  51  28 E9        29.96F
LEXINGTON      MOSUNNY   87  60  40 S10       29.90F
MCCOOK         SUNNY     86  62  44 N9        29.91S
OGALLALA       SUNNY     85  49  28 N3        29.97S
$$

NEZ005>010-023>029-035>040-094-250000-
NORTH CENTRAL NEBRASKA

CITY           SKY/WX    TMP DP  RH WIND       PRES   REMARKS
VALENTINE      MOSUNNY   89  55  31 W7        29.87F
AINSWORTH      SUNNY     80  65  59 S12       29.90F
BROKEN BOW     SUNNY     84  63  49 S10       29.92F
O`NEILL        PTSUNNY   84  65  51 S14       29.90F
ORD            MOSUNNY   85  61  44 S12       29.89F
THEDFORD       SUNNY     84  62  48 SE9       29.93F
$$

NEZ041-046>049-061>064-073>077-083>087-250000-
SOUTH CENTRAL NEBRASKA

CITY           SKY/WX    TMP DP  RH WIND       PRES   REMARKS
GRAND ISLAND   SUNNY     85  57  38 S16       29.93S
AURORA         SUNNY     86  53  32 S13G18    29.93S
HASTINGS       SUNNY     85  56  37 S10G22    29.94F
HEBRON         CLOUDY    86  59  39 S9G17     29.93F
HOLDREGE       SUNNY     85  58  39 S20G26    29.91F
KEARNEY        SUNNY     85  62  46 S16G26    29.92S
YORK           CLOUDY    84  55  37 S13G21    29.94R
$$

NEZ011>018-030>034-042>045-250000-
NORTHEAST NEBRASKA

CITY           SKY/WX    TMP DP  RH WIND       PRES   REMARKS
NORFOLK        MOSUNNY   88  58  36 S15G26    29.87F
ALBION         MOSUNNY   85  57  37 S16       29.91S
BLAIR          CLOUDY    89  60  38 S20       29.93S
COLUMBUS       CLOUDY    89  58  34 S16G23    29.91S
FREMONT        CLOUDY    87  60  39 S10       29.92S
TEKAMAH        MOSUNNY   88  63  43 S22       29.90S
WAYNE          PTSUNNY   86  58  37 S17G23    29.88F
$$

NEZ050>053-065>068-078-088>093-250000-
SOUTHEAST NEBRASKA

CITY           SKY/WX    TMP DP  RH WIND       PRES   REMARKS
LINCOLN        CLOUDY    86  62  44 S8        29.92S
OMAHA EPPLEY   CLOUDY    88  61  40 S16       29.92S
BEATRICE       CLOUDY    87  62  42 S12       29.92F
FALLS CITY     CLOUDY    85  66  53 S17G29    29.94F
NEBRASKA CITY  MOSUNNY   86  65  49 S12       29.94S
PLATTSMOUTH    CLOUDY    86  62  44 S12       29.94S
$$

NEZ044-045-051>053-067-250000-
OMAHA AREA

CITY           SKY/WX    TMP DP  RH WIND       PRES   REMARKS
OMAHA EPPLEY   CLOUDY    88  61  40 S16       29.92S
BLAIR          CLOUDY    89  60  38 S20       29.93S
FREMONT        CLOUDY    87  60  39 S10       29.92S
MILLARD        CLOUDY    89  66  46 S12       29.93S HX  91
OFFUTT AFB     CLOUDY    86  61  42 S10       29.92S
PLATTSMOUTH    CLOUDY    86  62  44 S12       29.94S
WAHOO          FAIR      87  56  34 S14       29.92F
$$




USA.gov is the U.S. government's official web portal to all federal, state and local government web resources and services.